Location: Ferchesar
(52.6477°N, 12.4298°E)
Time: 07:46:14
(UTC+01:00)

Transit 2A - All Passes

Search period start: 07 December 2021 00:00
Search period end: 17 December 2021 00:00
Orbit: 591 x 967 km, 66.7° (Epoch: 06 December)

Date Brightness Start Highest point End Pass type
(mag) Time Alt. Az. Time Alt. Az. Time Alt. Az.
07 Dec - 01:24:29 10° WSW 01:30:11 44° NW 01:36:15 10° NE visible
07 Dec - 03:10:06 10° WNW 03:15:03 24° N 03:20:09 10° NE visible
07 Dec - 04:55:12 10° NW 05:00:23 25° NNE 05:05:36 10° ENE visible
07 Dec - 06:38:53 10° NW 06:45:07 50° NE 06:51:13 10° ESE visible
07 Dec - 08:22:21 10° NW 08:28:33 52° WSW 08:34:29 10° SSE daylight
07 Dec - 10:08:34 10° W 10:10:24 11° W 10:12:12 10° WSW daylight
07 Dec - 23:07:02 10° S 23:12:30 45° ESE 23:18:25 10° NE night (unlit)
08 Dec - 00:49:57 10° WSW 00:55:46 53° NW 01:02:00 10° NE visible
08 Dec - 02:35:21 10° WNW 02:40:27 26° NNW 02:45:41 10° NE visible
08 Dec - 04:20:44 10° NW 04:25:46 24° N 04:30:50 10° ENE visible
08 Dec - 06:04:37 10° NW 06:10:41 42° NE 06:16:38 10° ESE visible
08 Dec - 07:48:02 10° NW 07:54:23 67° WSW 08:00:30 10° SSE daylight
08 Dec - 09:32:55 10° WNW 09:36:33 16° WSW 09:40:06 10° SW daylight
08 Dec - 22:33:18 10° S 22:38:27 34° ESE 22:43:59 10° NE night (unlit)
09 Dec - 00:15:32 10° SW 00:21:24 65° NW 00:27:44 10° NE night (unlit)
09 Dec - 02:00:37 10° W 02:05:51 28° NNW 02:11:18 10° NE visible
09 Dec - 03:46:12 10° NW 03:51:08 23° N 03:56:06 10° NE visible
09 Dec - 05:30:21 10° NW 05:36:12 36° NNE 05:41:59 10° E visible
09 Dec - 07:13:44 10° NW 07:20:11 84° SW 07:26:23 10° SE visible
09 Dec - 08:58:00 10° WNW 09:02:39 22° WSW 09:07:09 10° SSW daylight
09 Dec - 21:59:46 10° SSE 22:04:28 26° ESE 22:09:26 10° NE night (unlit)
09 Dec - 23:41:12 10° SW 23:47:06 81° NW 23:53:29 10° NE night (unlit)
10 Dec - 01:25:53 10° W 01:31:18 32° NNW 01:36:57 10° NE visible
10 Dec - 03:11:36 10° NW 03:16:29 23° N 03:21:26 10° NE visible
10 Dec - 04:56:02 10° NW 05:01:41 31° NNE 05:07:17 10° E visible
10 Dec - 06:39:28 10° NW 06:45:56 78° NE 06:52:09 10° SE visible
10 Dec - 08:23:22 10° NW 08:28:41 29° WSW 08:33:49 10° SSW daylight
10 Dec - 21:26:32 10° SSE 21:30:32 19° ESE 21:34:44 10° ENE night (unlit)
10 Dec - 23:06:59 10° SSW 23:12:51 81° SE 23:19:13 10° NE night (unlit)
11 Dec - 00:51:12 10° W 00:56:47 36° NNW 01:02:38 10° NE visible
11 Dec - 02:36:57 10° NW 02:41:50 23° N 02:46:49 10° NE visible
11 Dec - 04:21:42 10° NW 04:27:08 28° NNE 04:32:32 10° ENE visible
11 Dec - 06:05:13 10° NW 06:11:36 63° NE 06:17:47 10° SE visible
11 Dec - 07:48:52 10° NW 07:54:40 38° WSW 08:00:14 10° S daylight
11 Dec - 20:53:46 10° SE 20:56:39 14° E 20:59:38 10° ENE night (unlit)
11 Dec - 22:32:54 10° SSW 22:38:40 63° ESE 22:44:53 10° NE night (unlit)
12 Dec - 00:16:34 10° WSW 00:22:18 43° NW 00:28:22 10° NE night (unlit)
12 Dec - 02:02:15 10° WNW 02:07:12 24° N 02:12:17 10° NE visible
12 Dec - 03:47:18 10° NW 03:52:32 26° NNE 03:57:46 10° ENE visible
12 Dec - 05:30:58 10° NW 05:37:14 52° NE 05:43:19 10° ESE visible
12 Dec - 07:14:28 10° NW 07:20:36 49° WSW 07:26:27 10° S visible
12 Dec - 09:01:23 10° W 09:02:23 10° W 09:03:23 10° WSW daylight
12 Dec - 21:58:58 10° S 22:04:33 48° ESE 22:10:33 10° NE night (unlit)
12 Dec - 23:42:02 10° WSW 23:47:53 51° NW 23:54:05 10° NE night (unlit)
13 Dec - 01:27:30 10° WNW 01:32:35 25° NNW 01:37:49 10° NE visible
13 Dec - 03:12:51 10° NW 03:17:55 24° N 03:23:00 10° ENE visible
13 Dec - 04:56:42 10° NW 05:02:48 43° NE 05:08:45 10° ESE visible
13 Dec - 06:40:07 10° NW 06:46:28 64° WSW 06:52:30 10° SSE visible
13 Dec - 08:25:12 10° WNW 08:28:33 15° WSW 08:31:49 10° SW daylight
13 Dec - 21:25:11 10° S 21:30:28 36° ESE 21:36:08 10° NE night (unlit)
13 Dec - 23:07:34 10° SW 23:13:30 63° NW 23:19:50 10° NE night (unlit)
14 Dec - 00:52:45 10° WNW 00:57:59 28° NNW 01:03:24 10° NE night (unlit)
14 Dec - 02:38:20 10° NW 02:43:17 23° N 02:48:16 10° ENE visible
14 Dec - 04:22:26 10° NW 04:28:20 37° NNE 04:34:08 10° E visible
14 Dec - 06:05:50 10° NW 06:12:16 81° SW 06:18:25 10° SSE visible
14 Dec - 07:50:12 10° WNW 07:54:40 20° WSW 07:58:58 10° SSW daylight
14 Dec - 20:51:37 10° SSE 20:56:28 28° ESE 21:01:38 10° NE night (unlit)
14 Dec - 22:33:14 10° SW 22:39:10 78° NW 22:45:35 10° NE night (unlit)
15 Dec - 00:18:00 10° W 00:23:25 31° NNW 00:29:03 10° NE night (unlit)
15 Dec - 02:03:44 10° NW 02:08:38 23° N 02:13:35 10° NE visible
15 Dec - 03:48:07 10° NW 03:53:49 32° NNE 03:59:25 10° E visible
15 Dec - 05:31:33 10° NW 05:38:01 81° NE 05:44:12 10° SE visible
15 Dec - 07:15:31 10° NW 07:20:43 27° WSW 07:25:42 10° SSW visible
15 Dec - 20:18:19 10° SSE 20:22:32 21° ESE 20:26:57 10° ENE night (unlit)
15 Dec - 21:58:59 10° SW 22:04:55 84° SE 22:11:19 10° NE night (unlit)
15 Dec - 23:43:18 10° W 23:48:54 35° NNW 23:54:45 10° NE night (unlit)
16 Dec - 01:29:05 10° NW 01:33:59 23° N 01:38:58 10° NE visible
16 Dec - 03:13:47 10° NW 03:19:16 29° NNE 03:24:41 10° E visible
16 Dec - 04:57:17 10° NW 05:03:42 66° NE 05:09:51 10° SE visible
16 Dec - 06:41:00 10° NW 06:46:42 36° WSW 06:52:10 10° S visible
16 Dec - 19:45:25 10° SE 19:48:38 15° ESE 19:51:59 10° ENE night (unlit)
16 Dec - 21:24:52 10° SSW 21:30:43 66° ESE 21:37:01 10° NE night (unlit)
16 Dec - 23:08:40 10° WSW 23:14:25 41° NW 23:20:28 10° NE night (unlit)
